ATLAS 5 CENTAUR DEB, 43958

Orbit data source: Space-Track

ATLAS 5 CENTAUR DEB, 43958 is space debris in HEO originally from a launch on Wed, 17 Sep 2014 UTC launched from the Air Force Eastern Test Range (AFETR). Debris objects in space refer to the collection of defunct objects orbiting the Earth. Examples of debris include non-operational satellites, rocket bodies, and fragments generated from explosions, collisions, or faulty payload assembly.

Loading next visibility...
ATLAS 5 CENTAUR DEB details
Identifier
43958, 2014-055M
Orbit
HEO
Last TLE update2 days ago
Origin
Flag of USULA (US)
ManufacturerUnknown
MissionSpacecraft
Bus & MotorUnknown
MassUnknown
Launch date (UTC)
2014-09-17 (10 years ago)
Launch vehicleUnknown
Launch site
Air Force Eastern Test Range (AFETR)
Object type
Payload
Rocket body
Debris
Shape & HBRUnknown
Radar Cross SectionSmall (<0.1 m²)

Expand to show TLE details & history

TLE from 2 days ago
0 ATLAS 5 CENTAUR DEB
1 43958U 14055M   24359.70841346 -.00000021  00000-0  00000-0 0  9994
2 43958  19.7475 189.6924 4821262  86.0333 325.6951  1.89327680 43687
Epoch: 2024-12-24T17:00Z
Definitive object data (Epoch: 2024-12-24T17:00:06.922Z)
Latitude-0°
Longitude-159.02091°
Altitude14,092.223 km
Speed4.95 km/s
True Right ascension12h 38m 52s
True Declination0° 00' 00"
Sunlit
Object was in daylight at TLE epoch
Visualization TLE readout
Latitude-4.24777°
Longitude32.73241°
Altitude18,115.09 km
Speed4.255 km/s
Apparent Right ascension00h 49m 22s
Apparent Declination-12° 14' 24"
Sunlit
Object is in daylight
Visualization observer readout
Local Sidereal Time09:20:13
Azimuth285.95° WNW
Elevation-36.478°
Doppler factor1
Orbital elements
Apogee altitude34,533.058 km
Perigee altitude7,916.756 km
Semi-major axis27,603.044 km
Eccentricity0.4821262
Inclination19.7475°
RAAN189.6924°
Arg. of periapsis86.0333°
True anomaly274.10688°
Mean anomaly325.6951°
Eccentric anomaly302.36166°
Mean motion0.47327 °/min
BSTARUnknown
Orbital period760.67 mins
Loading maneuver chart data...

ATLAS 5 CENTAUR DEB Visibility forecast

Observer location: undefined°, undefined

Span
Click to sort rows by Start time (UTC) header in descending order
Start Az.
Max El. time (UTC)
Max El. Az.
Max El.
End time (UTC)
End Az.
130 mins2024-12-26 20:33:06.630Z261.35° W2024-12-26 21:14:06.630Z187.66° SSW38.484°2024-12-26 22:43:06.630Z120.583° SE
|